Location: Losili
(4.4086°N, 32.7049°E)
Time: 07:14:14
(UTC+00:00)

CSL-04 Rocket - Pass Details

Date: 18 September 2019
Orbit: 806 x 860 km, 99.0° (Epoch: 22 October)

Event Time Altitude Azimuth Distance (km) Brightness Sun altitude
Rises 16:11:28 0° 152° (SSE) 3,357 6.5 -6.9°
Reaches altitude 10° 16:13:57 10° 144° (SE) 2,431 5.7 -7.5°
Maximum altitude 16:18:56 39° 76° (ENE) 1,232 4.1 -8.7°
Drops below altitude 10° 16:23:58 10° 9° (N) 2,458 6.1 -10.0°
Sets 16:26:28 0° 1° (N) 3,399 6.9 -10.6°
